Weather in Baunt

Russia / Republic of Buryatia     55°15′13″N   113°07′07″E
temp.,
°C
wind,
m/s
gust,
m/s
humid.,
%
clouds,
%
prec.,
mm/h
press.,
hPa
HPBL,
m
6 august, fri
fri623:00+12n228289 1.3 100048
02:00+11nnw118878 2.4 100115
05:00+9nw119048 0.2 100113
08:00+13wnw117433 0.3 1000438
11:00+18wnw125160 0.4 9981587
14:00+17ssw015495 0.8 998736
17:00+18n125195 0.1 997937
20:00+14n226626 0.1 99911
7 august, sat
sat723:00+11nnw22736 0.0 100011
02:00+10ne117931 0.0 100110
05:00+9ene218249 0.0 100211
08:00+12e1276100 0.0 1002200
11:00+16se236666 0.1 1002661
14:00+20sse34475 0.3 10011515
17:00+20se3449100 0.1 10011281
20:00+15ese1173100 0.5 100313
8 august, sun
sun823:00+12nne2396100 7.4 1005106
02:00+12ne2387100 9.9 100359
05:00+12ne3696100 4.3 1002237
08:00+12ne3595100 14.0 1003298
11:00+13e3593100 2.7 1004513
14:00+13e2391100 4.9 1005319
17:00+12e2396100 3.0 1005165
20:00+12ene119699 4.8 100729
9 august, mon
mon923:00+11ese0093100 0.2 100715
02:00+11sw119496 0.4 100713
05:00+10wnw119545 0.2 100810
08:00+13sw118443 0.3 1008469
11:00+16wsw236233 0.3 10081185
14:00+19sw234886 0.5 10072041
17:00+18w225497 0.0 100890
20:00+15nnw226297 0.1 100914
10 august, tue
tue1023:00+13n117194 0.1 101118
02:00+12sse117697 0.1 101210
05:00+12se0080100 0.1 101310
08:00+13se0177100 0.2 1013110
11:00+17sw1162100 0.2 1013725
14:00+19wsw2250100 0.3 10131716
17:00+18ssw1250100 0.0 10131400
20:00+15se1163100 0.0 101411